Location: *
(40.4000°N, 15.1200°E)
Time: 05:21:48
(UTC+00:00)

Cosmos 1980 Rocket - Pass Details

Date: 09 April 2020
Orbit: 828 x 851 km, 71.0° (Epoch: 05 June)

Event Time Altitude Azimuth Distance (km) Brightness Sun altitude
Rises 19:55:34 0° 349° (N) 3,386 6.0 -25.5°
Reaches altitude 10° 19:58:47 10° 7° (N) 2,452 5.0 -26.0°
Enters shadow 20:02:21 19° 47° (NE) 1,922 3.9 -26.5°
